Location: Brompton
(51.4000°N, 0.5333°E)
Time: 09:33:38
(UTC+00:00)

ARIANE 5 R/B - Pass Details

Date: 11 May 2021
Orbit: 620 x 656 km, 98.1° (Epoch: 09 June)

Event Time Altitude Azimuth Distance (km) Brightness Sun altitude
Exits shadow 20:52:22 13° 152° (SSE) 1,825 4.4 -10.0°
Maximum altitude 20:56:14 65° 72° (ENE) 685 2.7 -10.4°
Drops below altitude 10° 21:00:33 10° 350° (N) 2,002 6.1 -10.8°
Sets 21:02:46 0° 348° (NNW) 2,915 7.2 -11.0°
